| time (UTC) | temp C | wind direction | speed KPH | gust KPH | rain 1hr cm | rain 24hr cm | rain mn cm | humidity % | barometer mb |
| 20260902142017 | 29 | 0 | 0.0 | 4.8 | 0.00 | 0.00 | 0.00 | 62 | 1023.3 |
| 20260902141609 | 29 | 0 | 0.0 | 0.0 | 0.00 | 0.00 | 0.00 | 62 | 1023.3 |
| 20260902141517 | 29 | 0 | 0.0 | 0.0 | 0.00 | 0.00 | 0.00 | 62 | 1023.3 |
| 20260902141240 | 28 | 0 | 0.0 | 0.0 | 0.00 | 0.00 | 0.00 | 64 | 1023.3 |
| 20260902141017 | 29 | 0 | 0.0 | 0.0 | 0.00 | 0.00 | 0.00 | 64 | 1023.3 |
| 20260902140519 | 28 | 0 | 0.0 | 0.0 | 0.00 | 0.00 | 0.00 | 64 | 1023.3 |
| 20260902140059 | 28 | 0 | 0.0 | 3.2 | 0.00 | 0.00 | 0.00 | 62 | 1023.1 |
| 20260902140019 | 28 | 0 | 0.0 | 1.6 | 0.00 | 0.00 | 0.00 | 63 | 1023.2 |
| 20260902135519 | 28 | 0 | 0.0 | 1.6 | 0.00 | 0.00 | 0.00 | 65 | 1023.3 |
| 20260902135018 | 28 | 0 | 0.0 | 0.0 | 0.00 | 0.00 | 0.00 | 63 | 1023.2 |
| 20260902134519 | 28 | 0 | 0.0 | 3.2 | 0.00 | 0.00 | 0.00 | 62 | 1023.1 |
| 20260902134018 | 28 | 0 | 0.0 | 3.2 | 0.00 | 0.00 | 0.00 | 64 | 1023.2 |
| 20260902133517 | 29 | 0 | 0.0 | 3.2 | 0.00 | 0.00 | 0.00 | 64 | 1023.3 |
| 20260902133018 | 29 | 0 | 0.0 | 0.0 | 0.00 | 0.00 | 0.00 | 63 | 1023.2 |
| 20260902132517 | 28 | 0 | 0.0 | 0.0 | 0.00 | 0.00 | 0.00 | 66 | 1023.2 |
| 20260902132017 | 28 | 0 | 0.0 | 0.0 | 0.00 | 0.00 | 0.00 | 68 | 1023.2 |
| 20260902131521 | 28 | 0 | 0.0 | 4.8 | 0.00 | 0.00 | 0.00 | 67 | 1023.2 |
| 20260902131231 | 28 | 0 | 0.0 | 4.8 | 0.00 | 0.00 | 0.00 | 67 | 1023.2 |
| 20260902131020 | 28 | 0 | 0.0 | 4.8 | 0.00 | 0.00 | 0.00 | 67 | 1023.2 |
| 20260902130521 | 28 | 0 | 0.0 | 1.6 | 0.00 | 0.00 | 0.00 | 66 | 1023.4 |
| 20260902130017 | 28 | 0 | 0.0 | 0.0 | 0.00 | 0.00 | 0.00 | 67 | 1023.4 |
| 20260902125519 | 27 | 0 | 0.0 | 0.0 | 0.00 | 0.00 | 0.00 | 66 | 1023.5 |
| 20260902124953 | 27 | 0 | 0.0 | 1.6 | 0.00 | 0.00 | 0.00 | 69 | 1023.4 |
| 20260902124242 | 27 | 0 | 0.0 | 4.8 | 0.00 | 0.00 | 0.00 | 73 | 1023.4 |
| 20260902123742 | 26 | 0 | 0.0 | 4.8 | 0.00 | 0.00 | 0.00 | 71 | 1023.3 |
| 20260902123243 | 26 | 0 | 0.0 | 3.2 | 0.00 | 0.00 | 0.00 | 71 | 1023.4 |
| 20260902122742 | 26 | 0 | 0.0 | 0.0 | 0.00 | 0.00 | 0.00 | 73 | 1023.4 |
| 20260902122242 | 25 | 0 | 0.0 | 3.2 | 0.00 | 0.00 | 0.00 | 75 | 1023.3 |
| 20260902121742 | 25 | 0 | 0.0 | 6.4 | 0.00 | 0.00 | 0.00 | 75 | 1023.2 |
| 20260902121242 | 25 | 328 | 1.6 | 9.7 | 0.00 | 0.00 | 0.00 | 75 | 1023.2 |
| 20260902120742 | 25 | 328 | 3.2 | 9.7 | 0.00 | 0.00 | 0.00 | 76 | 1023.1 |
| 20260902120242 | 25 | 328 | 4.8 | 8.0 | 0.00 | 0.00 | 0.00 | 76 | 1023.2 |
| 20260902115742 | 25 | 328 | 3.2 | 9.7 | 0.00 | 0.00 | 0.00 | 75 | 1023.1 |
| 20260902115243 | 25 | 328 | 4.8 | 12.9 | 0.00 | 0.00 | 0.00 | 75 | 1023.0 |
| 20260902114742 | 25 | 328 | 6.4 | 12.9 | 0.00 | 0.00 | 0.00 | 74 | 1022.9 |
| 20260902114243 | 25 | 328 | 6.4 | 12.9 | 0.00 | 0.00 | 0.00 | 74 | 1022.9 |
| 20260902113742 | 25 | 328 | 8.0 | 12.9 | 0.00 | 0.00 | 0.00 | 74 | 1022.8 |
| 20260902113243 | 25 | 328 | 4.8 | 12.9 | 0.00 | 0.00 | 0.00 | 74 | 1022.8 |
| 20260902112743 | 25 | 328 | 6.4 | 12.9 | 0.00 | 0.00 | 0.00 | 74 | 1022.8 |
| 20260902112243 | 25 | 328 | 6.4 | 12.9 | 0.00 | 0.00 | 0.00 | 74 | 1022.7 |
| 20260902111742 | 25 | 328 | 6.4 | 9.7 | 0.00 | 0.00 | 0.00 | 74 | 1022.7 |
| 20260902111242 | 25 | 328 | 6.4 | 9.7 | 0.00 | 0.00 | 0.00 | 74 | 1022.7 |
| 20260902110744 | 25 | 328 | 4.8 | 9.7 | 0.00 | 0.00 | 0.00 | 73 | 1022.7 |
| 20260902110242 | 25 | 328 | 6.4 | 9.7 | 0.00 | 0.00 | 0.00 | 73 | 1022.6 |
| 20260902105742 | 25 | 328 | 4.8 | 9.7 | 0.00 | 0.00 | 0.00 | 73 | 1022.6 |
| 20260902105242 | 25 | 328 | 4.8 | 9.7 | 0.00 | 0.00 | 0.00 | 74 | 1022.6 |
| 20260902104744 | 25 | 328 | 4.8 | 8.0 | 0.00 | 0.00 | 0.00 | 74 | 1022.6 |
| 20260902104243 | 25 | 328 | 4.8 | 9.7 | 0.00 | 0.00 | 0.00 | 75 | 1022.7 |
| 20260902103742 | 25 | 328 | 4.8 | 12.9 | 0.00 | 0.00 | 0.00 | 75 | 1022.7 |
| 20260902103242 | 25 | 328 | 6.4 | 12.9 | 0.00 | 0.00 | 0.00 | 75 | 1022.7 |
| 20260902102707 | 25 | 328 | 4.8 | 9.7 | 0.00 | 0.00 | 0.00 | 75 | 1022.7 |
| 20260902102101 | 25 | 328 | 6.4 | 9.7 | 0.00 | 0.00 | 0.00 | 75 | 1022.6 |
| 20260902101558 | 25 | 328 | 6.4 | 9.7 | 0.00 | 0.00 | 0.00 | 75 | 1022.6 |
| 20260902101058 | 25 | 328 | 6.4 | 12.9 | 0.00 | 0.00 | 0.00 | 75 | 1022.6 |
| 20260902100600 | 25 | 328 | 6.4 | 12.9 | 0.00 | 0.00 | 0.00 | 75 | 1022.5 |
| 20260902100059 | 25 | 328 | 4.8 | 9.7 | 0.00 | 0.00 | 0.00 | 75 | 1022.5 |
| 20260902095559 | 25 | 328 | 4.8 | 14.5 | 0.00 | 0.00 | 0.00 | 75 | 1022.6 |
| 20260902095058 | 25 | 328 | 4.8 | 14.5 | 0.00 | 0.00 | 0.00 | 75 | 1022.6 |
| 20260902094558 | 25 | 328 | 4.8 | 9.7 | 0.00 | 0.00 | 0.00 | 75 | 1022.6 |
| 20260902094058 | 25 | 328 | 3.2 | 8.0 | 0.00 | 0.00 | 0.00 | 75 | 1022.6 |
| 20260902093559 | 25 | 328 | 4.8 | 9.7 | 0.00 | 0.00 | 0.00 | 75 | 1022.5 |
| 20260902093103 | 25 | 328 | 3.2 | 9.7 | 0.00 | 0.00 | 0.00 | 75 | 1022.4 |
| 20260902092558 | 25 | 328 | 6.4 | 9.7 | 0.00 | 0.00 | 0.00 | 75 | 1022.4 |
| 20260902092058 | 25 | 328 | 4.8 | 12.9 | 0.00 | 0.00 | 0.00 | 75 | 1022.4 |
| 20260902091600 | 25 | 328 | 6.4 | 12.9 | 0.00 | 0.00 | 0.00 | 75 | 1022.4 |
| 20260902091058 | 25 | 328 | 4.8 | 12.9 | 0.00 | 0.00 | 0.00 | 75 | 1022.4 |
| 20260902090558 | 25 | 328 | 4.8 | 12.9 | 0.00 | 0.00 | 0.00 | 74 | 1022.5 |
| 20260902090058 | 25 | 328 | 6.4 | 12.9 | 0.00 | 0.00 | 0.00 | 75 | 1022.5 |
| 20260902085558 | 25 | 328 | 6.4 | 12.9 | 0.00 | 0.00 | 0.00 | 74 | 1022.5 |
| 20260902085059 | 25 | 328 | 4.8 | 9.7 | 0.00 | 0.00 | 0.00 | 75 | 1022.5 |
| 20260902084601 | 25 | 328 | 4.8 | 9.7 | 0.00 | 0.00 | 0.00 | 75 | 1022.4 |
| 20260902084058 | 25 | 328 | 3.2 | 14.5 | 0.00 | 0.00 | 0.00 | 75 | 1022.4 |
| 20260902083558 | 25 | 328 | 8.0 | 14.5 | 0.00 | 0.00 | 0.00 | 75 | 1022.3 |
| 20260902083058 | 25 | 328 | 6.4 | 14.5 | 0.00 | 0.00 | 0.00 | 75 | 1022.3 |
| 20260902082558 | 25 | 328 | 8.0 | 14.5 | 0.00 | 0.00 | 0.00 | 75 | 1022.2 |
| 20260902082058 | 25 | 328 | 8.0 | 12.9 | 0.00 | 0.00 | 0.00 | 75 | 1022.3 |
| 20260902081558 | 25 | 328 | 6.4 | 12.9 | 0.00 | 0.00 | 0.00 | 75 | 1022.2 |
| 20260902081058 | 25 | 328 | 4.8 | 9.7 | 0.00 | 0.00 | 0.00 | 74 | 1022.3 |
| 20260902080300 | 25 | 328 | 3.2 | 9.7 | 0.00 | 0.00 | 0.00 | 75 | 1022.2 |
| 20260902080227 | 25 | 328 | 3.2 | 9.7 | 0.00 | 0.00 | 0.00 | 75 | 1022.2 |
| 20260902075725 | 25 | 328 | 4.8 | 12.9 | 0.00 | 0.00 | 0.00 | 75 | 1022.2 |
| 20260902075231 | 25 | 328 | 4.8 | 14.5 | 0.00 | 0.00 | 0.00 | 75 | 1022.3 |
| 20260902074727 | 25 | 328 | 6.4 | 14.5 | 0.00 | 0.00 | 0.00 | 75 | 1022.2 |
| 20260902074226 | 25 | 328 | 6.4 | 9.7 | 0.00 | 0.00 | 0.00 | 75 | 1022.3 |
| 20260902073728 | 25 | 328 | 3.2 | 9.7 | 0.00 | 0.00 | 0.00 | 75 | 1022.3 |
| 20260902073226 | 25 | 328 | 3.2 | 9.7 | 0.00 | 0.00 | 0.00 | 75 | 1022.3 |
| 20260902072725 | 25 | 328 | 4.8 | 9.7 | 0.00 | 0.00 | 0.00 | 75 | 1022.4 |
| 20260902072227 | 25 | 328 | 3.2 | 9.7 | 0.00 | 0.00 | 0.00 | 74 | 1022.4 |
| 20260902071725 | 25 | 328 | 4.8 | 12.9 | 0.00 | 0.00 | 0.00 | 74 | 1022.5 |
| 20260902071225 | 25 | 328 | 4.8 | 12.9 | 0.00 | 0.00 | 0.00 | 74 | 1022.5 |
| 20260902070725 | 25 | 328 | 3.2 | 9.7 | 0.00 | 0.00 | 0.00 | 74 | 1022.5 |
| 20260902070435 | 25 | 328 | 1.6 | 8.0 | 0.00 | 0.00 | 0.00 | 73 | 1022.5 |
| 20260902070225 | 25 | 328 | 1.6 | 8.0 | 0.00 | 0.00 | 0.00 | 73 | 1022.5 |
| 20260902065725 | 25 | 328 | 1.6 | 8.0 | 0.00 | 0.00 | 0.00 | 73 | 1022.5 |
| 20260902065226 | 25 | 328 | 1.6 | 14.5 | 0.00 | 0.00 | 0.00 | 73 | 1022.5 |
| 20260902064726 | 25 | 328 | 3.2 | 14.5 | 0.00 | 0.00 | 0.00 | 73 | 1022.4 |
| 20260902064226 | 25 | 328 | 3.2 | 9.7 | 0.00 | 0.00 | 0.00 | 72 | 1022.5 |
| 20260902063728 | 25 | 328 | 1.6 | 12.9 | 0.00 | 0.00 | 0.00 | 72 | 1022.4 |
| 20260902063231 | 25 | 328 | 3.2 | 12.9 | 0.00 | 0.00 | 0.00 | 72 | 1022.5 |
| 20260902062725 | 25 | 328 | 3.2 | 6.4 | 0.00 | 0.00 | 0.00 | 72 | 1022.5 |
| 20260902062226 | 25 | 0 | 0.0 | 8.0 | 0.00 | 0.00 | 0.00 | 71 | 1022.5 |
| 20260902061727 | 25 | 328 | 1.6 | 8.0 | 0.00 | 0.00 | 0.00 | 72 | 1022.5 |
| 20260902061227 | 25 | 0 | 0.0 | 6.4 | 0.00 | 0.00 | 0.00 | 72 | 1022.4 |
| 20260902060725 | 25 | 0 | 0.0 | 6.4 | 0.00 | 0.00 | 0.00 | 72 | 1022.5 |
| 20260902060229 | 25 | 0 | 0.0 | 6.4 | 0.00 | 0.00 | 0.00 | 72 | 1022.4 |
| 20260902055729 | 25 | 0 | 0.0 | 8.0 | 0.00 | 0.00 | 0.00 | 72 | 1022.3 |
| 20260902055230 | 25 | 328 | 3.2 | 8.0 | 0.00 | 0.00 | 0.00 | 72 | 1022.2 |
| 20260902054726 | 25 | 328 | 1.6 | 12.9 | 0.00 | 0.00 | 0.00 | 71 | 1022.2 |
| 20260902054226 | 25 | 328 | 4.8 | 12.9 | 0.00 | 0.00 | 0.00 | 71 | 1022.2 |
| 20260902053727 | 25 | 328 | 1.6 | 8.0 | 0.00 | 0.00 | 0.00 | 70 | 1022.2 |
| 20260902053227 | 25 | 328 | 1.6 | 4.8 | 0.00 | 0.00 | 0.00 | 70 | 1022.2 |
| 20260902052726 | 26 | 328 | 1.6 | 6.4 | 0.00 | 0.00 | 0.00 | 70 | 1022.2 |
| 20260902052225 | 26 | 0 | 0.0 | 6.4 | 0.00 | 0.00 | 0.00 | 70 | 1022.2 |
| 20260902051727 | 26 | 0 | 0.0 | 8.0 | 0.00 | 0.00 | 0.00 | 70 | 1022.1 |
| 20260902051230 | 26 | 328 | 1.6 | 8.0 | 0.00 | 0.00 | 0.00 | 70 | 1022.1 |
| 20260902050725 | 26 | 328 | 1.6 | 9.7 | 0.00 | 0.00 | 0.00 | 71 | 1022.1 |
| 20260902050227 | 25 | 328 | 1.6 | 9.7 | 0.00 | 0.00 | 0.00 | 71 | 1022.1 |
| 20260902045725 | 25 | 328 | 3.2 | 8.0 | 0.00 | 0.00 | 0.00 | 71 | 1021.9 |
| 20260902045308 | 25 | 328 | 1.6 | 6.4 | 0.00 | 0.00 | 0.00 | 71 | 1021.9 |
| 20260902045227 | 25 | 328 | 1.6 | 6.4 | 0.00 | 0.00 | 0.00 | 71 | 1021.9 |
| 20260902044255 | 26 | 328 | 1.6 | 8.0 | 0.00 | 0.00 | 0.00 | 70 | 1022.1 |
| 20260902043757 | 26 | 0 | 0.0 | 8.0 | 0.00 | 0.00 | 0.00 | 70 | 1022.1 |
| 20260902043254 | 26 | 328 | 1.6 | 8.0 | 0.00 | 0.00 | 0.00 | 70 | 1022.1 |
| 20260902042755 | 26 | 328 | 3.2 | 9.7 | 0.00 | 0.00 | 0.00 | 69 | 1022.1 |
| 20260902042259 | 26 | 328 | 1.6 | 12.9 | 0.00 | 0.00 | 0.00 | 69 | 1022.1 |
| 20260902041754 | 26 | 328 | 3.2 | 12.9 | 0.00 | 0.00 | 0.00 | 69 | 1022.1 |
| 20260902041256 | 26 | 328 | 3.2 | 9.7 | 0.00 | 0.00 | 0.00 | 68 | 1022.1 |
| 20260902040754 | 26 | 328 | 1.6 | 8.0 | 0.00 | 0.00 | 0.00 | 68 | 1022.2 |
| 20260902040254 | 26 | 328 | 1.6 | 8.0 | 0.00 | 0.00 | 0.00 | 67 | 1022.3 |
| 20260902035754 | 26 | 328 | 1.6 | 9.7 | 0.00 | 0.00 | 0.00 | 68 | 1022.2 |
| 20260902035258 | 26 | 328 | 4.8 | 9.7 | 0.00 | 0.00 | 0.00 | 68 | 1022.2 |
| 20260902034754 | 26 | 328 | 4.8 | 9.7 | 0.00 | 0.00 | 0.00 | 68 | 1022.2 |
| 20260902034258 | 26 | 328 | 3.2 | 9.7 | 0.00 | 0.00 | 0.00 | 69 | 1022.1 |
| 20260902033754 | 26 | 328 | 1.6 | 8.0 | 0.00 | 0.00 | 0.00 | 69 | 1022.1 |
| 20260902032603 | 26 | 328 | 3.2 | 9.7 | 0.00 | 0.00 | 0.00 | 69 | 1022.0 |
| 20260902032103 | 26 | 328 | 4.8 | 9.7 | 0.00 | 0.00 | 0.00 | 69 | 1022.0 |
| 20260902031603 | 26 | 328 | 3.2 | 9.7 | 0.00 | 0.00 | 0.00 | 69 | 1022.0 |
| 20260902031107 | 26 | 328 | 1.6 | 6.4 | 0.00 | 0.00 | 0.00 | 69 | 1022.0 |
| 20260902030603 | 26 | 0 | 0.0 | 8.0 | 0.00 | 0.00 | 0.00 | 69 | 1022.0 |
| 20260902030103 | 26 | 328 | 1.6 | 8.0 | 0.00 | 0.00 | 0.00 | 70 | 1022.0 |
| 20260902025603 | 26 | 328 | 1.6 | 8.0 | 0.00 | 0.00 | 0.00 | 70 | 1022.1 |
| 20260902025104 | 26 | 328 | 1.6 | 6.4 | 0.00 | 0.00 | 0.00 | 69 | 1022.0 |
| 20260902024603 | 26 | 328 | 1.6 | 4.8 | 0.00 | 0.00 | 0.00 | 69 | 1022.1 |
| 20260902024103 | 26 | 0 | 0.0 | 8.0 | 0.00 | 0.00 | 0.00 | 69 | 1022.2 |
| 20260902023603 | 26 | 328 | 1.6 | 8.0 | 0.00 | 0.00 | 0.00 | 69 | 1022.2 |
| 20260902022604 | 26 | 0 | 0.0 | 9.7 | 0.00 | 0.00 | 0.00 | 69 | 1022.3 |
| 20260902022104 | 26 | 328 | 1.6 | 9.7 | 0.00 | 0.00 | 0.00 | 68 | 1022.2 |
| 20260902021604 | 26 | 0 | 0.0 | 4.8 | 0.00 | 0.00 | 0.00 | 69 | 1022.1 |
| 20260902021114 | 27 | 0 | 0.0 | 6.4 | 0.00 | 0.00 | 0.00 | 69 | 1022.1 |
| 20260902020604 | 27 | 328 | 1.6 | 9.7 | 0.00 | 0.00 | 0.00 | 68 | 1022.1 |
| 20260902020104 | 27 | 328 | 1.6 | 25.7 | 0.00 | 0.00 | 0.00 | 68 | 1022.0 |
| 20260902015604 | 27 | 0 | 0.0 | 25.7 | 0.00 | 0.00 | 0.00 | 68 | 1022.0 |
| 20260902015112 | 27 | 328 | 1.6 | 14.5 | 0.00 | 0.00 | 0.00 | 68 | 1021.9 |
| 20260902014604 | 27 | 0 | 0.0 | 4.8 | 0.00 | 0.00 | 0.00 | 68 | 1021.8 |
| 20260902014105 | 27 | 0 | 0.0 | 4.8 | 0.00 | 0.00 | 0.00 | 67 | 1021.8 |
| 20260902013604 | 27 | 0 | 0.0 | 3.2 | 0.00 | 0.00 | 0.00 | 67 | 1021.6 |
| 20260902013104 | 27 | 0 | 0.0 | 4.8 | 0.00 | 0.00 | 0.00 | 66 | 1021.6 |
| 20260902012604 | 27 | 0 | 0.0 | 4.8 | 0.00 | 0.00 | 0.00 | 66 | 1021.6 |
| 20260902012104 | 27 | 0 | 0.0 | 3.2 | 0.00 | 0.00 | 0.00 | 66 | 1021.5 |
| 20260902011604 | 27 | 0 | 0.0 | 1.6 | 0.00 | 0.00 | 0.00 | 65 | 1021.5 |
| 20260902011052 | 27 | 0 | 0.0 | 3.2 | 0.00 | 0.00 | 0.00 | 65 | 1021.4 |
| 20260902005604 | 27 | 0 | 0.0 | 0.0 | 0.00 | 0.00 | 0.00 | 65 | 1021.4 |
| 20260902005104 | 27 | 0 | 0.0 | 0.0 | 0.00 | 0.00 | 0.00 | 65 | 1021.3 |
| 20260902004602 | 28 | 0 | 0.0 | 0.0 | 0.00 | 0.00 | 0.00 | 65 | 1021.3 |
| 20260902004102 | 27 | 0 | 0.0 | 0.0 | 0.00 | 0.00 | 0.00 | 65 | 1021.3 |
| 20260902003602 | 27 | 0 | 0.0 | 0.0 | 0.00 | 0.00 | 0.00 | 65 | 1021.3 |
| 20260902003102 | 27 | 0 | 0.0 | 0.0 | 0.00 | 0.00 | 0.00 | 65 | 1021.3 |
| 20260902002602 | 27 | 0 | 0.0 | 0.0 | 0.00 | 0.00 | 0.00 | 66 | 1021.3 |
| 20260902002103 | 27 | 0 | 0.0 | 0.0 | 0.00 | 0.00 | 0.00 | 67 | 1021.2 |
| 20260902001602 | 27 | 0 | 0.0 | 0.0 | 0.00 | 0.00 | 0.00 | 67 | 1021.3 |
| 20260902000650 | 27 | 0 | 0.0 | 1.6 | 0.00 | 0.00 | 0.00 | 67 | 1021.3 |
| 20260902000150 | 27 | 0 | 0.0 | 1.6 | 0.00 | 0.00 | 0.00 | 67 | 1021.3 |
| 20260901235650 | 28 | 0 | 0.0 | 0.0 | 0.00 | 0.00 | 0.00 | 67 | 1021.2 |
| 20260901235150 | 28 | 0 | 0.0 | 0.0 | 0.00 | 0.00 | 0.00 | 66 | 1021.2 |
| 20260901234650 | 28 | 0 | 0.0 | 0.0 | 0.00 | 0.00 | 0.00 | 66 | 1021.3 |
| 20260901234150 | 28 | 0 | 0.0 | 0.0 | 0.00 | 0.00 | 0.00 | 66 | 1021.3 |
| 20260901233650 | 28 | 0 | 0.0 | 0.0 | 0.00 | 0.00 | 0.00 | 66 | 1021.4 |
| 20260901233151 | 28 | 0 | 0.0 | 0.0 | 0.00 | 0.00 | 0.00 | 67 | 1021.4 |
| 20260901232650 | 28 | 0 | 0.0 | 0.0 | 0.00 | 0.00 | 0.00 | 67 | 1021.4 |
| 20260901232150 | 28 | 0 | 0.0 | 0.0 | 0.00 | 0.00 | 0.00 | 67 | 1021.5 |
| 20260901231650 | 28 | 0 | 0.0 | 0.0 | 0.00 | 0.00 | 0.00 | 68 | 1021.5 |
| 20260901231150 | 28 | 0 | 0.0 | 1.6 | 0.00 | 0.00 | 0.00 | 69 | 1021.6 |
| 20260901230650 | 28 | 0 | 0.0 | 1.6 | 0.00 | 0.00 | 0.00 | 68 | 1021.6 |
| 20260901230150 | 28 | 0 | 0.0 | 3.2 | 0.00 | 0.00 | 0.00 | 66 | 1021.6 |
| 20260901225650 | 28 | 0 | 0.0 | 3.2 | 0.00 | 0.00 | 0.00 | 66 | 1021.7 |
| 20260901225107 | 29 | 0 | 0.0 | 0.0 | 0.00 | 0.00 | 0.00 | 66 | 1021.7 |
| 20260901224553 | 29 | 0 | 0.0 | 4.8 | 0.00 | 0.00 | 0.00 | 64 | 1021.7 |
| 20260901223755 | 29 | 0 | 0.0 | 4.8 | 0.00 | 0.00 | 0.00 | 64 | 1021.8 |
| 20260901223253 | 29 | 0 | 0.0 | 6.4 | 0.00 | 0.00 | 0.00 | 64 | 1021.7 |
| 20260901222753 | 29 | 0 | 0.0 | 6.4 | 0.00 | 0.00 | 0.00 | 63 | 1021.7 |
| 20260901222258 | 29 | 0 | 0.0 | 3.2 | 0.00 | 0.00 | 0.00 | 63 | 1021.7 |
| 20260901221753 | 29 | 0 | 0.0 | 4.8 | 0.00 | 0.00 | 0.00 | 63 | 1021.5 |
| 20260901221253 | 30 | 0 | 0.0 | 14.5 | 0.00 | 0.00 | 0.00 | 61 | 1021.7 |
| 20260901220753 | 30 | 328 | 1.6 | 14.5 | 0.00 | 0.00 | 0.00 | 60 | 1021.7 |
| 20260901220253 | 30 | 328 | 1.6 | 4.8 | 0.00 | 0.00 | 0.00 | 60 | 1021.7 |
| 20260901215753 | 30 | 0 | 0.0 | 8.0 | 0.00 | 0.00 | 0.00 | 60 | 1021.7 |
| 20260901215256 | 30 | 328 | 1.6 | 8.0 | 0.00 | 0.00 | 0.00 | 60 | 1021.7 |
| 20260901214753 | 30 | 0 | 0.0 | 9.7 | 0.00 | 0.00 | 0.00 | 60 | 1021.7 |
| 20260901214253 | 30 | 328 | 1.6 | 9.7 | 0.00 | 0.00 | 0.00 | 59 | 1021.7 |
| 20260901213755 | 30 | 328 | 1.6 | 6.4 | 0.00 | 0.00 | 0.00 | 59 | 1021.6 |
| 20260901213255 | 30 | 328 | 1.6 | 6.4 | 0.00 | 0.00 | 0.00 | 59 | 1021.6 |
| 20260901212753 | 30 | 0 | 0.0 | 8.0 | 0.00 | 0.00 | 0.00 | 59 | 1021.6 |
| 20260901212253 | 30 | 328 | 1.6 | 8.0 | 0.00 | 0.00 | 0.00 | 58 | 1021.5 |
| 20260901211753 | 30 | 328 | 1.6 | 8.0 | 0.00 | 0.00 | 0.00 | 58 | 1021.6 |
| 20260901211253 | 31 | 328 | 3.2 | 9.7 | 0.00 | 0.00 | 0.00 | 58 | 1021.5 |
| 20260901210753 | 31 | 328 | 3.2 | 16.1 | 0.00 | 0.00 | 0.00 | 59 | 1021.5 |
| 20260901210253 | 31 | 328 | 3.2 | 16.1 | 0.00 | 0.00 | 0.00 | 56 | 1021.6 |
| 20260901205655 | 31 | 0 | 0.0 | 6.4 | 0.00 | 0.00 | 0.00 | 58 | 1021.8 |
| 20260901205155 | 31 | 0 | 0.0 | 6.4 | 0.00 | 0.00 | 0.00 | 59 | 1021.8 |
| 20260901204652 | 30 | 328 | 1.6 | 9.7 | 0.00 | 0.00 | 0.00 | 58 | 1021.9 |
| 20260901204153 | 30 | 328 | 1.6 | 9.7 | 0.00 | 0.00 | 0.00 | 58 | 1021.9 |
| 20260901203653 | 31 | 0 | 0.0 | 9.7 | 0.00 | 0.00 | 0.00 | 57 | 1022.0 |
| 20260901203153 | 31 | 328 | 1.6 | 9.7 | 0.00 | 0.00 | 0.00 | 57 | 1022.1 |
| 20260901202418 | 31 | 328 | 3.2 | 16.1 | 0.00 | 0.00 | 0.00 | 57 | 1022.1 |
| 20260901201918 | 31 | 328 | 1.6 | 16.1 | 0.00 | 0.00 | 0.00 | 57 | 1022.0 |
| 20260901201422 | 31 | 0 | 0.0 | 8.0 | 0.00 | 0.00 | 0.00 | 56 | 1022.0 |
| 20260901200918 | 31 | 0 | 0.0 | 9.7 | 0.00 | 0.00 | 0.00 | 57 | 1022.0 |
| 20260901200422 | 31 | 329 | 1.6 | 9.7 | 0.00 | 0.00 | 0.00 | 56 | 1022.0 |
| 20260901195918 | 31 | 0 | 0.0 | 6.4 | 0.00 | 0.00 | 0.00 | 57 | 1022.1 |
| 20260901195418 | 31 | 0 | 0.0 | 8.0 | 0.00 | 0.00 | 0.00 | 55 | 1022.2 |
| 20260901194918 | 32 | 329 | 1.6 | 8.0 | 0.00 | 0.00 | 0.00 | 53 | 1022.3 |
| 20260901194420 | 32 | 0 | 0.0 | 6.4 | 0.00 | 0.00 | 0.00 | 56 | 1022.2 |
| 20260901193918 | 31 | 0 | 0.0 | 12.9 | 0.00 | 0.00 | 0.00 | 56 | 1022.2 |
| 20260901193418 | 31 | 0 | 0.0 | 12.9 | 0.00 | 0.00 | 0.00 | 54 | 1022.2 |
| 20260901192919 | 31 | 0 | 0.0 | 14.5 | 0.00 | 0.00 | 0.00 | 55 | 1022.2 |
| 20260901192418 | 31 | 0 | 0.0 | 14.5 | 0.00 | 0.00 | 0.00 | 55 | 1022.4 |
| 20260901191918 | 31 | 0 | 0.0 | 4.8 | 0.00 | 0.00 | 0.00 | 55 | 1022.4 |
| 20260901191418 | 31 | 329 | 1.6 | 9.7 | 0.00 | 0.00 | 0.00 | 54 | 1022.5 |
| 20260901190918 | 31 | 329 | 1.6 | 9.7 | 0.00 | 0.00 | 0.00 | 56 | 1022.5 |
| 20260901190418 | 31 | 329 | 1.6 | 8.0 | 0.00 | 0.00 | 0.00 | 57 | 1022.7 |
| 20260901185918 | 30 | 329 | 3.2 | 9.7 | 0.00 | 0.00 | 0.00 | 58 | 1022.6 |
| 20260901185418 | 30 | 329 | 3.2 | 14.5 | 0.00 | 0.00 | 0.00 | 55 | 1022.6 |
| 20260901184918 | 31 | 329 | 3.2 | 19.3 | 0.00 | 0.00 | 0.00 | 56 | 1022.7 |
| 20260901184418 | 31 | 324 | 6.4 | 19.3 | 0.00 | 0.00 | 0.00 | 55 | 1022.7 |
| 20260901183918 | 31 | 324 | 1.6 | 9.7 | 0.00 | 0.00 | 0.00 | 56 | 1022.7 |
| 20260901183418 | 31 | 323 | 1.6 | 9.7 | 0.00 | 0.00 | 0.00 | 58 | 1022.7 |
| 20260901182918 | 30 | 0 | 0.0 | 19.3 | 0.00 | 0.00 | 0.00 | 60 | 1022.8 |
| 20260901182418 | 30 | 324 | 4.8 | 19.3 | 0.00 | 0.00 | 0.00 | 58 | 1022.8 |
| 20260901181920 | 30 | 323 | 4.8 | 12.9 | 0.00 | 0.00 | 0.00 | 56 | 1022.8 |
| 20260901181418 | 30 | 323 | 3.2 | 19.3 | 0.00 | 0.00 | 0.00 | 58 | 1022.8 |
| 20260901180923 | 30 | 323 | 3.2 | 19.3 | 0.00 | 0.00 | 0.00 | 60 | 1022.8 |
| 20260901180418 | 30 | 323 | 3.2 | 14.5 | 0.00 | 0.00 | 0.00 | 59 | 1022.9 |
| 20260901175918 | 31 | 321 | 3.2 | 12.9 | 0.00 | 0.00 | 0.00 | 58 | 1022.9 |
| 20260901175418 | 30 | 321 | 1.6 | 9.7 | 0.00 | 0.00 | 0.00 | 59 | 1022.9 |
| 20260901174918 | 30 | 0 | 0.0 | 16.1 | 0.00 | 0.00 | 0.00 | 61 | 1022.9 |
| 20260901174418 | 30 | 322 | 1.6 | 16.1 | 0.00 | 0.00 | 0.00 | 60 | 1023.0 |
| 20260901173918 | 30 | 320 | 1.6 | 12.9 | 0.00 | 0.00 | 0.00 | 60 | 1023.0 |
| 20260901173418 | 30 | 320 | 1.6 | 12.9 | 0.00 | 0.00 | 0.00 | 60 | 1022.9 |
| 20260901172918 | 30 | 0 | 0.0 | 16.1 | 0.00 | 0.00 | 0.00 | 61 | 1023.0 |
| 20260901172418 | 30 | 320 | 3.2 | 16.1 | 0.00 | 0.00 | 0.00 | 60 | 1023.0 |
| 20260901171919 | 30 | 319 | 3.2 | 12.9 | 0.00 | 0.00 | 0.00 | 60 | 1023.1 |
| 20260901171418 | 30 | 319 | 3.2 | 12.9 | 0.00 | 0.00 | 0.00 | 62 | 1023.0 |
| 20260901170918 | 30 | 319 | 1.6 | 9.7 | 0.00 | 0.00 | 0.00 | 61 | 1023.1 |
| 20260901170802 | 29 | 0 | 0.0 | 14.5 | 0.00 | 0.00 | 0.00 | 62 | 1023.4 |
| 20260901170759 | 29 | 316 | 1.6 | 16.1 | 0.00 | 0.00 | 0.00 | 63 | 1023.5 |
| 20260901170756 | 29 | 315 | 1.6 | 16.1 | 0.00 | 0.00 | 0.00 | 61 | 1023.5 |
| 20260901170418 | 30 | 319 | 3.2 | 9.7 | 0.00 | 0.00 | 0.00 | 60 | 1023.1 |
| 20260901165918 | 30 | 319 | 3.2 | 9.7 | 0.00 | 0.00 | 0.00 | 62 | 1023.1 |
| 20260901165418 | 30 | 319 | 1.6 | 9.7 | 0.00 | 0.00 | 0.00 | 62 | 1023.2 |
| 20260901164919 | 30 | 319 | 1.6 | 16.1 | 0.00 | 0.00 | 0.00 | 62 | 1023.3 |
| 20260901164418 | 30 | 318 | 4.8 | 16.1 | 0.00 | 0.00 | 0.00 | 61 | 1023.3 |
| 20260901163918 | 29 | 0 | 0.0 | 14.5 | 0.00 | 0.00 | 0.00 | 62 | 1023.4 |
| 20260901163327 | 29 | 316 | 1.6 | 16.1 | 0.00 | 0.00 | 0.00 | 63 | 1023.5 |
| 20260901162827 | 29 | 315 | 1.6 | 16.1 | 0.00 | 0.00 | 0.00 | 61 | 1023.5 |
| 20260901162505 | 27 | 0 | 0.0 | 12.9 | 0.00 | 0.00 | 0.00 | 71 | 1024.0 |
| 20260901162327 | 30 | 0 | 0.0 | 6.4 | 0.00 | 0.00 | 0.00 | 63 | 1023.5 |
| 20260901161827 | 29 | 0 | 0.0 | 9.7 | 0.00 | 0.00 | 0.00 | 65 | 1023.6 |
| 20260901161327 | 29 | 313 | 3.2 | 9.7 | 0.00 | 0.00 | 0.00 | 63 | 1023.6 |
| 20260901160828 | 29 | 0 | 0.0 | 8.0 | 0.00 | 0.00 | 0.00 | 67 | 1023.7 |
| 20260901160327 | 29 | 313 | 3.2 | 8.0 | 0.00 | 0.00 | 0.00 | 66 | 1023.8 |
| 20260901155827 | 29 | 0 | 0.0 | 8.0 | 0.00 | 0.00 | 0.00 | 67 | 1023.7 |
| 20260901155327 | 29 | 0 | 0.0 | 4.8 | 0.00 | 0.00 | 0.00 | 65 | 1023.7 |
| 20260901154827 | 29 | 0 | 0.0 | 4.8 | 0.00 | 0.00 | 0.00 | 67 | 1023.7 |
| 20260901154327 | 28 | 0 | 0.0 | 4.8 | 0.00 | 0.00 | 0.00 | 69 | 1023.7 |
| 20260901153827 | 28 | 0 | 0.0 | 4.8 | 0.00 | 0.00 | 0.00 | 71 | 1023.8 |
| 20260901153327 | 28 | 0 | 0.0 | 6.4 | 0.00 | 0.00 | 0.00 | 72 | 1024.0 |
| 20260901152827 | 28 | 0 | 0.0 | 6.4 | 0.00 | 0.00 | 0.00 | 70 | 1023.9 |
| 20260901152327 | 28 | 0 | 0.0 | 6.4 | 0.00 | 0.00 | 0.00 | 71 | 1024.0 |
| 20260901151827 | 27 | 0 | 0.0 | 12.9 | 0.00 | 0.00 | 0.00 | 71 | 1024.0 |
| 20260901151327 | 27 | 0 | 0.0 | 12.9 | 0.00 | 0.00 | 0.00 | 70 | 1024.0 |
| 20260901150827 | 27 | 0 | 0.0 | 9.7 | 0.00 | 0.00 | 0.00 | 71 | 1024.0 |
| 20260901150327 | 27 | 313 | 1.6 | 9.7 | 0.00 | 0.00 | 0.00 | 69 | 1024.1 |
| 20260901145827 | 27 | 0 | 0.0 | 14.5 | 0.00 | 0.00 | 0.00 | 70 | 1024.1 |
| 20260901145327 | 27 | 313 | 1.6 | 14.5 | 0.00 | 0.00 | 0.00 | 70 | 1024.1 |
| 20260901144827 | 27 | 0 | 0.0 | 8.0 | 0.00 | 0.00 | 0.00 | 70 | 1024.2 |
| 20260901144330 | 27 | 313 | 1.6 | 8.0 | 0.00 | 0.00 | 0.00 | 70 | 1024.3 |
| 20260901144129 | 27 | 313 | 1.6 | 12.9 | 0.00 | 0.00 | 0.00 | 71 | 1024.3 |
| 20260901143828 | 27 | 313 | 1.6 | 12.9 | 0.00 | 0.00 | 0.00 | 71 | 1024.3 |
| 20260901143621 | 27 | 313 | 1.6 | 12.9 | 0.00 | 0.00 | 0.00 | 69 | 1024.3 |
| 20260901143327 | 27 | 313 | 1.6 | 12.9 | 0.00 | 0.00 | 0.00 | 69 | 1024.3 |
| 20260901142915 | 27 | 313 | 1.6 | 8.0 | 0.00 | 0.00 | 0.00 | 70 | 1024.3 |
| 20260901142827 | 27 | 313 | 1.6 | 8.0 | 0.00 | 0.00 | 0.00 | 70 | 1024.3 |
| 20260901142327 | 27 | 313 | 1.6 | 8.0 | 0.00 | 0.00 | 0.00 | 71 | 1024.3 |